作者outingmax (AllenOU)
看板car
標題[討論] Crv & cla200 抉擇..
時間Thu Jul 4 18:06:31 2019
家裡老車也差不多了最近一直有在看車,原本鎖定HRV,無奈那個All new改版吃不下去..
.改看crv
親戚有輛cla200最近有在問,6萬多里程、2014 80萬
Crv全新大概96萬,還未加汰舊換新五萬補助+6000廢鐵金
家裡需求兩大兩小
各位車友會怎麼選~
--
※ 發信站: 批踢踢實業坊(ptt.cc), 來自: 111.83.18.56 (臺灣)
※ 文章網址: https://webptt.com/m.aspx?n=bbs/car/M.1562234793.A.006.html
1F:推 louie83279: CLA後座很難坐大人,請先考慮清楚 07/04 18:07
2F:推 s90755166: CRV,除非你虛榮,CLA你會用的很痛快 07/04 18:08
3F:推 asdf3164: Rav4 07/04 18:08
4F:→ s90755166: 痛苦....錯字 07/04 18:08
5F:推 spyget: CLA 07/04 18:10
6F:推 ponzixd: 兩小還考慮cla........ 07/04 18:11
7F:推 pneumas: CLA 07/04 18:11
8F:推 xxctsd: Rav4 07/04 18:12
9F:→ OrzOGC: 秒選CLA 07/04 18:13
10F:→ DaVinci: 有2小還CLA 後座不行 而且外型8+9味超濃 07/04 18:14
11F:→ zer0319: CLA,多的錢叫副駕跟兩小自己搭車 07/04 18:14
12F:推 Scape: Octavia、RAV4、Altis、Camry、Auris、CRV、Karoq這些選 07/04 18:15
13F:→ Scape: 一台,坐四人開CLA 會很難受 07/04 18:15
14F:推 bpwolf: CLA我收 給我親戚資訊 07/04 18:15
15F:推 JEON: CLA 秒選 07/04 18:17
16F:推 lucky945: 這兩台在車板政治不正確 推文我不敢看 07/04 18:19
17F:→ wondtty: 那鋼材強度能比? 07/04 18:20
18F:推 RV: CRV 07/04 18:21
19F:推 ymx3xc: 有兩小的 乖乖買休旅OR其它大車吧 有閒錢第二台車 再買CLA 07/04 18:21
20F:推 whitestripe: 我個人 我個人覺得 cla的外型整體流線 好看 07/04 18:26
21F:→ whitestripe: 但是最重要的頭燈 跟現在流行的窄長已經有老氣了 07/04 18:26
22F:推 whatbb123: 小孩多小 其實不是成人 後座兩汽座應該還行 但要看是 07/04 18:27
23F:→ whatbb123: 不是shooting brake款 是的話才足夠應付帶小孩出門需 07/04 18:27
24F:→ whatbb123: 要的載運量 兩台推車很佔空間的 07/04 18:27
25F:推 warren0972: CRV 07/04 18:29
26F:推 bruce2248: 路上8+9超多開CLA250 07/04 18:32
27F:推 WuKong: 為了鐵桿曬衣服,當然選CRV 07/04 18:33
28F:推 hasebe: CRV算家庭車最佳解之一了 07/04 18:34
29F:→ hasebe: 而且新車安全性贏舊車很多,剛好ACC交接期 07/04 18:35
30F:→ a27588679: rav4 07/04 18:36
31F:推 ccc101419: Honda Sensing很不錯啊 某些豪華品牌二手車 看FB廣告 07/04 18:36
32F:→ ccc101419: 連定速都未必有 07/04 18:36
33F:推 hasebe: Honda雖然板上飽受批評,不過主要是高層太混 07/04 18:37
34F:→ hasebe: 單看CRV沒話說,光引擎就打趴一堆同級車 07/04 18:38
35F:推 AaronWei1007: CRV還要不錯。 07/04 18:38
36F:→ AaronWei1007: 選CRV比較適合 07/04 18:39
37F:推 hardwilson: CLA 想什麼 有機會賓士不開 07/04 18:40
38F:推 siopp: Crv 07/04 18:40
39F:→ hardwilson: 兩台都開過 賓士絕對比本田好開很多 07/04 18:41
40F:推 sorkayi: Crv 如果你們家都很矮才考慮cla 07/04 18:41
41F:→ hardwilson: CRV 開高速晃成那樣 07/04 18:41
42F:推 SaberMyWifi: 人一輩子至少要擁有過一台賓士 07/04 18:42
43F:→ GiantChicken: CLA你單身或沒生小孩還可以 不然是找麻煩 07/04 18:44
44F:推 jackorz: Cla+1 07/04 18:45
45F:推 han3rd: 我上次半夜車速偵測線掛了 引擎亮警示燈 ABS/TCS全都失效 07/04 18:46
46F:→ han3rd: CLA還是順順國三開回家 給你參考 07/04 18:46
47F:推 sunny0914: Cla開一陣子在賣,不會賠太多的 07/04 18:47
49F:推 ILOVEHobr: Cla。幹嘛crv 07/04 18:52
50F:推 ericekin: crv 07/04 18:59
51F:推 money222: CLA 後座真的想哭 07/04 19:00
52F:→ Bimmer3698: 開CLA圓夢啊 07/04 19:00
53F:推 sleepybaby: 已有兩小怎麼還會有抉擇的問題?CLA後座小不拉嘰的, 07/04 19:01
54F:→ sleepybaby: 後車廂更不用說,東西是要放哪 07/04 19:01
55F:→ b07130602: CLA不行的話就賣我... 07/04 19:02
56F:推 cevs: Cla 開在路上有面子多 07/04 19:17
57F:→ BOOMM030: CLA面子秋 但是我177坐後座過個坑就撞車頂了 後面如果要 07/04 19:20
58F:→ BOOMM030: 載家中老大的話肯定他會超不爽 07/04 19:20
59F:推 Mazda6: Cla很爛,至少c class 07/04 19:27
60F:推 windowdoor: 年輕 未婚 CLA. 有家庭CRV 07/04 19:39
61F:推 hiro0613: 兩小對於cla後座是綽綽有餘 cla好開多了 07/04 19:40
62F:推 hydefans: 如果不用帶大包小包尿布娃娃車 Cla後面帶2小ok 07/04 19:41
63F:推 monson0412: CLA200 要問看看有沒有AMG包 沒有的話是真的蠻醜 07/04 19:59
64F:→ monson0412: 而且內裝跟配備不一定是你想像中的賓士喔 07/04 20:01
65F:推 kenny890429: 兩小就不要再cla了 07/04 20:01
66F:推 safary: 虛榮選GLA,實用選CRV 07/04 20:03
67F:推 c98765432c: 買x6 07/04 20:16
68F:推 kkk520: 當然cla小朋友是要多大的位置 07/04 20:26
69F:噓 ccc101419: 樓上沒小孩吧?汽座x2 嬰兒車x2 其他的都不要算你說要 07/04 20:27
70F:→ ccc101419: 多少位置? 07/04 20:27
71F:推 kkk520: 對抱歉我沒小孩 07/04 20:47
72F:推 Jeter: 2手的NGCC 還是最入門款 談什麼面子 搞笑.... 07/04 21:09
73F:推 borensu0223: Rav4吧 07/04 21:16
74F:推 yichi24: 選CLA你一定會後悔...親戚看你兩大兩小還要賣你CLA...真 07/04 21:22
75F:→ yichi24: 的很沒道德-.- 只想變現吧 07/04 21:23
76F:推 terry66: Cla很8+9 07/04 21:29
77F:→ liuwaiting: 說cla8+9的前輩們都開什麼帥車啊? 07/04 21:30
78F:→ anguslf2: 秒選CLA還要想嗎 07/04 21:35
79F:推 alexlu70233: 別理酸民 CRV 07/04 21:39
80F:推 sunkiswei: CLA賣我 親戚資訊可以麻煩您嗎 07/04 21:50
81F:推 ckm525: CLA我81萬收 07/04 21:52
82F:推 kuso5522: 有CLA選什麼CRV,而且80超佛 07/04 21:53
83F:推 ccc101419: CLA200 07/04 21:55
85F:→ ccc101419: 後座跟後車廂都很慘烈 車機老舊 內裝質感好 三芒星虛榮 07/04 21:56
86F:→ ccc101419: CRV 07/04 21:56
88F:→ ccc101419: 省油 空間 馬力 渦輪 HondaSensing 車機配Garmin導航 07/04 21:57
89F:→ ccc101419: 老實說我是想不出來為了虛榮去買二手賓士的理由 07/04 21:57
90F:→ ccc101419: 特別是你還說了你們家是兩大兩小 07/04 21:58
91F:推 qx5: 載人cla真的很辛苦,請三思啊 07/04 22:00
92F:推 mixmix: 推文有人看不懂字 07/04 22:12
93F:推 midsummer072: 我覺得樓上提議很好啊,買來玩一陣子,再換成CRV 07/04 22:13
94F:推 lovefriend: 適不適合先不說 但CLA200這價格算不錯捏!! 07/04 22:20
95F:→ js52666: CRV還可以載貨拼經濟 07/04 22:34
96F:→ clamperni: cla衝了 07/04 22:39
97F:推 notempo: 個人認為Cla當成雙座用 後座放東西就好... 坐人壓迫感蠻 07/04 22:47
98F:→ notempo: 重的 07/04 22:47
99F:推 Friedman: 瘋田粉真多 就2選1了還硬要推RAV4刷存在感 07/04 23:02
100F:推 steven89185: 虛榮cla,實用crv 07/04 23:08
101F:推 treison: CLA好車,本田貨車完全不考慮謝謝 07/04 23:11
102F:推 AGITOH: 選新車+空間 要選硬的話綁鋼柱在車上最強 07/04 23:47
103F:推 jingkaii: 秒選cla 之後玩膩 賣搞不好不會虧錢 還有機會賺 自售的 07/04 23:57
104F:→ jingkaii: 話 07/04 23:57
105F:→ jingkaii: 等小孩大一點 再買更新的Crv 07/04 23:57
106F:→ jingkaii: 機會難得 話說賓士新車我們一般人根本買不下去 趁這個機 07/04 23:57
107F:→ jingkaii: 會衝了吧! 07/04 23:57
108F:→ vizjeco: cla很小 是滿帥的 07/05 00:36
109F:推 polypress: Cla等小孩大了賣掉買CRV 07/05 01:09
110F:推 e7096345: CLA 80不是很佛嗎... 07/05 01:15
111F:推 elnacongo: Rav4 07/05 01:41
112F:推 hihi29: 用不錯價位的錢買親戚的車 然後再賣掉 是要雙方關係打壞? 07/05 02:31
113F:推 jaroslaw: 傻了才選crv 07/05 03:19
114F:推 ludwig0201: 萬一有了萬一,你不會後悔選CLA 07/05 08:19
115F:推 sanwan: CLA再殺10萬,選CLA然後開一年後換車 07/05 08:28
116F:推 darkjustice: Cla玩個幾年再換 07/05 09:10
117F:推 a881: 換glc吧 07/05 09:11
118F:→ jeff40108: 只是雙B在台灣特別值錢,除非你轉賣否則就只是信仰價 07/05 09:59
119F:推 a19911205a: 怎麼那麼多親戚有這種車要賣 07/05 10:26
120F:→ hasebe: 因為高級車和進口車,越老越難顧 07/05 10:39
121F:推 square87: 有家庭的時候買車就要有不同的考量 07/05 11:03
122F:→ dcoog7880: rav4 07/05 11:33
123F:推 andy31313: CLA很帥欸 我選CLA 07/05 13:50
124F:推 ogcman: cla後座 超過175 會很痛苦 07/05 16:24
125F:→ ogcman: 載女生 小孩還可以 坐成年男生 不是很推 07/05 16:25
126F:→ ogcman: 但cla200 80的確佛 新車要180幾 07/05 16:26
127F:推 Flcyndi: CLA後座真的很看身高,175cm不舒服,小孩無感 07/05 16:44
128F:推 henryowo: 留言說CLA後座不夠用的是每個都身高190 200? 07/05 18:24
129F:→ henryowo: 我181 調好坐姿坐去後座還有大概一個拳頭 07/05 18:24
130F:→ henryowo: 更何況是小朋友 我看推文一堆鍵盤手吧XD 07/05 18:25
131F:推 henryowo: 再來就是虛榮感 沒錯這社會就是這麼現實 就算你開一台 07/05 18:27
132F:→ henryowo: 車齡5年的三芒星還是屌打日系全新車 07/05 18:27
133F:推 henryowo: 但頭部空間跟屈膝程度對我來說的確有點壓迫 但還能接受 07/05 18:30
134F:推 Garbolin: 小孩還小,買cla過癮一陣子,等大了再換大車 07/05 19:19
135F:推 JEON: 版上連CX5 都說沒辦法帶小孩了 XDD 習慣就好 07/05 21:39
136F:推 qoo9959: 小孩越小要帶的東西就越多...一堆人是不是搞錯什麼 07/06 02:49
137F:推 fawuor: 自己開當然cla有小孩就… 07/06 04:15
138F:推 wings0713: 求親戚資訊 想買cla 07/06 06:52
139F:推 firzen5308: 有露營、空間需求 選CRV 07/06 11:32
140F:推 shake1949: 可能是巨嬰啊! 07/06 11:45
141F:推 mahahap3b: CRV路過...妥善率很不錯的 07/06 14:59
142F:推 ReadyToRock: 一堆CLA夠用馬自達3就不夠用的人 07/06 20:13
143F:→ saur : 要考慮後續養車的費用 09/03 11:50